Retour au catalogue

COSMOS 2251 DEB

ActifVLEO
NORAD 35670·DEBRIS·🇷🇺 Russia

Lancé Jun 16, 1993 depuis Plesetsk Cosmodrome

Loading…

Prochains Passages (prochaines 24 heures)

TLE

FraisSource: Space-Track

Époque: Sep 14, 2026, 06:36 UTC

1 35670U 93036APM 26257.27512919  .00008405  00000-0  64014-3 0  9995
2 35670  73.8905 220.8922 0027354 125.6233 234.7508 15.01910554918540

Suivez COSMOS 2251 DEB en temps réel avec AllMySat

Download on the App Store